Vertical_Velocity
-2 -1 -2 1 2 2 1 0 1 -1 -1 -0 -2 0 1 0 -0 -1 3 3 1 1 -1 2 1 4 2 2 -0 3 2 3 3 -0 2 2 9 4 4 -2 -8 -2 -5 -3 2 5 -0
-1 -4 -2 2 1 1 1 3 3 3 2 -2 3 -2 2 -1 -3 2 2 2 2 1 2 -2 1 1 -2 -4 0 1 -4 -0 0 0 3 -2 -1 4 3 -7 0 -1 -2 -1 2 -1 0
-0 -3 -0 2 1 1 2 3 2 2 -1 1 1 5 -3 -3 1 2 1 1 -1 -1 -0 -1 1 -2 1 -4 0 -1 3 1 -2 3 -2 -2 0 1 -4 -8 -3 -1 -1 2 -1 -4 -3
-2 -2 -0 1 1 2 1 -2 6 -7 1 1 0 4 1 -1 0 -1 1 -0 1 -0 -0 3 -0 2 0 3 1 3 2 4 4 0 -1 -1 -2 -4 -6 1 2 1 -3 -2 6 4 0
-2 -2 -1 4 1 1 2 -1 1 0 -0 2 2 -0 -1 -1 -0 -1 -1 1 -0 2 3 -0 2 4 0 3 2 4 3 -2 -1 -2 -0 -2 -3 -0 0 -1 0 1 14 2 3 3 1
-1 -1 1 3 3 -0 2 -2 1 2 3 4 -1 -2 -3 -3 -2 -2 -1 -1 1 2 1 3 6 -3 4 -0 2 2 2 1 -2 -0 0 -1 -1 -1 -1 1 28 10 2 0 2 -2 -0
-1 -0 1 2 -0 1 -2 -1 3 1 2 2 -2 -3 -2 2 1 2 2 3 7 1 6 0 1 2 0 1 1 1 1 1 2 3 -0 1 -4 -3 -1 0 1 3 1 4 -2 3 3
-2 1 2 1 -0 2 -1 0 2 1 2 0 -1 -1 -0 0 -1 -2 -1 -0 -6 3 3 -1 2 0 1 1 1 1 1 0 1 -1 1 1 -1 2 2 3 3 3 4 3 4 4 2
-0 -0 2 0 -0 0 2 2 1 1 0 -0 1 -0 -0 -2 -2 -0 -0 3 -1 -1 -2 2 0 0 -1 -0 1 -0 -1 -1 0 0 1 -3 1 1 2 3 5 2 -1 -2 -4 -2 1
-1 1 2 0 -1 1 2 3 1 -1 0 0 -0 0 0 -1 2 -0 -2 -1 -2 -2 -1 1 -1 1 1 -0 1 -1 -1 -1 -1 -2 -0 1 0 0 0 -1 -3 -3 -0 0 0 2 3
-1 1 4 -2 -1 2 2 1 1 -0 -1 0 0 -1 1 4 -9 -2 -2 -1 -1 1 -0 4 1 1 1 -1 -1 0 -1 -1 -0 0 0 1 -1 -2 -1 -1 -1 -3 -0 2 3 2 3
-0 -0 3 -2 -1 1 2 1 1 -0 -1 0 1 1 1 -2 2 -1 -0 -1 -1 1 2 0 1 -0 -1 -1 -1 -2 -1 -1 1 0 -0 -1 -1 -1 -0 0 0 0 -0 0 2 1 1
2 -1 3 -1 -2 1 1 1 2 0 1 1 1 0 1 3 -2 0 1 1 -0 0 1 0 -1 -1 0 1 0 0 0 0 1 -0 -1 -1 -1 -1 0 0 1 1 2 2 1 -0 4
3 -2 4 -1 2 1 -0 2 3 1 1 1 1 1 3 1 2 1 3 2 3 3 1 -1 0 1 1 1 1 -1 -1 -1 -1 -1 -0 0 -0 0 0 0 1 2 1 2 2 1 6
2 -2 3 -0 2 2 -0 2 3 2 2 2 -0 1 1 2 2 1 1 1 -1 1 2 2 1 -0 1 1 -0 -1 -1 -0 -0 1 1 0 0 0 -0 -1 -1 1 1 1 -1 3 1
2 -1 2 -0 2 3 1 3 2 2 3 2 0 1 1 1 1 1 -0 -0 1 3 2 1 2 2 -1 -1 -1 -1 -0 0 -0 -1 -0 0 0 -0 -1 1 -0 -1 -1 -1 2 -3 1
2 0 1 1 1 2 2 3 2 1 1 -1 1 1 1 -0 1 1 1 1 1 2 2 0 0 -0 0 -0 -0 0 -0 0 -1 0 0 -0 -1 -1 -0 0 -2 -3 -1 0 -1 2 -1
2 0 0 1 1 2 2 3 2 1 0 4 2 2 1 1 2 1 -0 3 2 1 0 0 -0 0 0 -0 -1 -2 -1 0 -1 -1 -0 -1 -2 -2 -1 0 -1 -1 -5 -2 1 -4 2
3 1 0 0 1 1 1 2 3 1 1 0 -1 6 0 1 0 2 0 0 -1 0 1 0 -0 -1 -1 -1 -2 -2 -1 -1 -2 -2 -2 -2 -2 -2 -7 -2 8 1 -6 -1 0 1 3
1 1 1 -1 1 1 1 1 2 2 2 3 2 -1 -3 1 3 0 -0 -0 -1 0 1 0 0 -1 -1 -1 -1 -1 -2 -2 -1 -2 -2 -2 -2 -2 -1 -0 -1 -3 -5 -2 -2 -1 -2
3 -1 1 -1 0 1 1 0 0 2 1 1 -0 -3 0 3 3 1 0 1 -1 0 0 -0 2 0 -0 -1 -1 -1 -1 -0 -1 -3 -4 -3 -1 -0 -1 -2 -1 0 -2 1 0 -4 -2
1 -1 1 0 0 2 1 1 -0 1 0 -1 2 -1 -1 0 -0 -1 -1 -1 -0 1 -2 -0 0 -1 -0 -1 -1 -1 -1 -2 -2 -3 -0 -2 -2 -2 2 -3 -0 0 -4 -0 1 2 0
0 1 0 0 -1 1 0 0 0 -0 -1 0 2 -1 -3 -0 -1 0 1 -0 1 2 1 -1 -0 -1 -1 -1 -0 -0 -1 -1 -2 -1 0 -1 -3 -2 3 -1 -2 -1 -2 -2 -1 -1 1
1 1 1 1 0 1 0 -0 -0 -0 1 -0 0 0 1 0 0 -0 -0 -1 -1 -1 -1 0 -3 -1 -1 -1 -0 -0 -2 -1 -2 -2 -2 -2 -2 -0 -1 -1 -6 0 -3 -1 -1 1 -1
0 1 1 1 0 0 0 -1 -0 0 1 1 0 1 -0 -1 -1 -2 0 -2 3 -1 -1 2 1 -1 -1 -1 -0 -1 -1 -0 -2 -2 -3 -1 -0 -4 -5 0 1 4 3 0 -1 7 -2
1 1 0 0 -2 1 1 0 -0 -0 1 1 1 2 1 -1 -3 1 -0 -1 -1 1 -0 -3 -1 0 1 -0 -0 -1 -1 -1 -1 -1 -2 -2 -2 -0 -2 -4 -7 -10 -3 -3 -2 0 1
1 1 1 2 1 -0 2 2 -0 -0 1 1 0 2 2 1 -1 -1 -1 1 3 0 0 -1 0 1 2 0 -0 1 -1 -2 -1 -3 1 -1 -3 -4 -2 -7 6 -2 1 3 0 0 -2
0 1 -1 0 2 0 1 1 -0 1 2 1 1 2 2 1 1 1 -1 1 0 0 1 5 -2 4 0 -1 1 1 -0 -1 1 -2 -1 -0 -4 -2 0 -5 -4 2 -3 0 -0 -2 0
2 0 -1 -1 0 0 -0 0 0 1 1 2 1 1 2 0 3 1 0 -1 -1 1 2 -2 -2 0 -3 -1 0 1 -0 2 -1 7 -1 -5 -5 4 -7 0 -10 -13 -9 -4 -2 -3 -4
Height
5747 5748 5748 5749 5749 5749 5747 5745 5745 5745 5744 5744 5745 5747 5750 5752 5754 5757 5759 5762 5764 5767 5769 5771 5774 5777 5779 5784 5785 5789 5792 5794 5796 5798 5802 5806 5808 5810 5812 5814 5817 5818 5819 5820 5821 5822 5823
5743 5744 5745 5746 5746 5746 5744 5744 5742 5741 5742 5742 5743 5747 5749 5752 5755 5757 5760 5762 5765 5768 5772 5774 5777 5780 5782 5786 5790 5793 5794 5797 5800 5802 5805 5806 5808 5811 5813 5815 5819 5820 5821 5822 5822 5823 5823
5739 5740 5741 5743 5744 5743 5742 5743 5740 5740 5740 5742 5744 5745 5748 5752 5755 5758 5761 5764 5767 5772 5775 5777 5781 5783 5787 5790 5793 5794 5797 5800 5802 5804 5806 5809 5810 5813 5816 5818 5820 5822 5823 5825 5824 5825 5825
5735 5736 5738 5740 5740 5740 5740 5742 5741 5740 5742 5743 5745 5748 5750 5753 5757 5760 5764 5767 5771 5775 5778 5782 5784 5787 5791 5794 5795 5798 5800 5803 5805 5807 5809 5812 5814 5816 5817 5819 5822 5823 5825 5826 5826 5825 5825
5731 5733 5734 5736 5738 5737 5739 5740 5740 5742 5742 5743 5746 5749 5752 5756 5760 5764 5767 5772 5775 5779 5783 5785 5788 5792 5794 5797 5799 5801 5804 5806 5808 5810 5811 5813 5815 5817 5819 5821 5823 5824 5829 5827 5826 5825 5825
5727 5729 5731 5734 5735 5736 5738 5738 5739 5740 5741 5744 5747 5751 5756 5760 5764 5768 5772 5776 5780 5784 5787 5790 5793 5796 5798 5800 5802 5804 5806 5808 5809 5811 5813 5814 5816 5818 5820 5823 5830 5829 5826 5825 5825 5823 5823
5724 5725 5728 5731 5732 5735 5735 5737 5738 5740 5743 5747 5752 5757 5761 5765 5769 5773 5777 5781 5786 5789 5791 5792 5796 5798 5800 5803 5805 5806 5808 5809 5810 5812 5813 5815 5818 5819 5819 5820 5822 5823 5823 5823 5822 5822 5822
5720 5722 5726 5728 5730 5733 5735 5736 5738 5742 5747 5751 5756 5761 5766 5770 5774 5777 5780 5783 5787 5792 5794 5796 5799 5801 5803 5805 5806 5808 5809 5811 5811 5813 5814 5816 5816 5818 5819 5820 5820 5821 5821 5821 5820 5820 5821
5716 5719 5723 5726 5729 5732 5733 5736 5740 5745 5750 5755 5760 5765 5770 5774 5778 5781 5784 5788 5790 5794 5797 5800 5801 5803 5805 5807 5808 5809 5811 5811 5812 5813 5815 5815 5817 5817 5818 5819 5819 5819 5819 5819 5819 5818 5818
5712 5716 5721 5724 5727 5730 5733 5737 5742 5747 5753 5759 5764 5768 5773 5777 5782 5784 5787 5791 5793 5796 5799 5803 5804 5805 5807 5807 5809 5810 5811 5813 5813 5814 5815 5815 5816 5816 5817 5817 5817 5816 5817 5817 5816 5816 5816
5709 5713 5718 5722 5725 5729 5733 5738 5744 5749 5755 5761 5765 5770 5775 5780 5782 5787 5791 5793 5796 5798 5801 5804 5804 5806 5807 5808 5810 5810 5810 5811 5811 5812 5813 5814 5813 5813 5813 5814 5814 5814 5814 5813 5813 5813 5813
5706 5710 5715 5719 5723 5728 5733 5739 5745 5751 5757 5762 5767 5772 5777 5781 5785 5788 5791 5795 5798 5801 5802 5803 5804 5805 5806 5807 5807 5807 5808 5808 5808 5809 5809 5810 5810 5810 5810 5810 5810 5810 5810 5810 5809 5808 5808
5703 5708 5713 5717 5722 5727 5733 5740 5745 5751 5757 5763 5768 5774 5778 5782 5785 5789 5792 5795 5798 5800 5803 5804 5804 5804 5804 5805 5805 5805 5805 5806 5806 5807 5807 5807 5807 5806 5806 5806 5805 5805 5806 5805 5805 5804 5803
5700 5706 5711 5716 5721 5726 5733 5740 5745 5752 5758 5764 5769 5774 5779 5782 5785 5789 5792 5795 5797 5799 5800 5801 5801 5801 5801 5802 5802 5803 5803 5804 5804 5805 5805 5805 5805 5804 5803 5803 5803 5802 5802 5802 5801 5800 5800
5696 5702 5709 5714 5719 5725 5732 5739 5745 5752 5759 5764 5770 5774 5778 5782 5786 5789 5792 5794 5796 5797 5799 5798 5798 5798 5798 5799 5801 5801 5802 5803 5803 5804 5805 5804 5804 5803 5802 5802 5801 5800 5799 5798 5796 5795 5793
5693 5699 5706 5712 5717 5723 5731 5737 5744 5751 5758 5763 5769 5773 5778 5781 5785 5788 5791 5793 5795 5796 5797 5796 5796 5796 5796 5797 5799 5799 5801 5802 5802 5803 5803 5803 5802 5802 5801 5800 5799 5797 5796 5794 5792 5790 5788
5691 5697 5704 5709 5715 5722 5728 5736 5743 5749 5756 5762 5767 5772 5776 5780 5784 5787 5790 5791 5793 5794 5794 5795 5795 5795 5795 5796 5798 5799 5800 5801 5801 5801 5801 5801 5801 5801 5799 5797 5795 5793 5791 5789 5786 5784 5781
5688 5694 5701 5707 5713 5720 5726 5733 5740 5747 5754 5760 5765 5770 5774 5778 5783 5785 5787 5790 5791 5791 5792 5793 5793 5794 5795 5796 5797 5798 5799 5799 5800 5800 5800 5799 5799 5798 5797 5794 5792 5789 5785 5782 5779 5776 5773
5685 5691 5698 5705 5711 5717 5723 5730 5737 5744 5751 5756 5762 5767 5771 5776 5779 5782 5785 5787 5788 5789 5790 5792 5792 5793 5794 5795 5797 5797 5798 5798 5799 5799 5798 5798 5797 5795 5792 5790 5787 5783 5779 5775 5772 5770 5768
5681 5689 5695 5702 5708 5714 5720 5726 5734 5740 5747 5753 5758 5763 5768 5773 5776 5779 5782 5783 5785 5786 5788 5790 5791 5792 5793 5794 5795 5796 5797 5797 5797 5797 5796 5795 5793 5792 5790 5786 5781 5776 5772 5768 5765 5763 5761
5678 5686 5692 5699 5705 5711 5717 5723 5729 5736 5742 5749 5754 5759 5765 5770 5773 5775 5778 5780 5781 5783 5785 5787 5788 5789 5790 5792 5793 5794 5795 5795 5795 5794 5793 5791 5789 5788 5786 5782 5777 5772 5767 5762 5759 5755 5752
5675 5681 5689 5696 5702 5708 5713 5718 5725 5732 5737 5744 5750 5755 5760 5764 5768 5771 5773 5775 5777 5780 5782 5784 5785 5786 5787 5789 5791 5791 5792 5792 5792 5790 5788 5787 5785 5783 5782 5778 5773 5768 5762 5758 5753 5749 5746
5671 5678 5686 5692 5699 5704 5709 5715 5720 5727 5733 5739 5745 5750 5755 5760 5763 5766 5769 5771 5773 5776 5779 5780 5782 5783 5785 5786 5787 5788 5788 5788 5787 5786 5783 5781 5779 5777 5777 5772 5768 5763 5759 5753 5747 5742 5740
5666 5674 5681 5688 5693 5700 5706 5711 5716 5722 5728 5734 5739 5745 5750 5755 5758 5760 5763 5766 5768 5771 5774 5776 5778 5780 5782 5783 5783 5784 5784 5784 5782 5780 5777 5775 5772 5769 5767 5764 5762 5754 5750 5747 5743 5737 5733
5662 5670 5677 5684 5690 5696 5701 5706 5712 5717 5723 5728 5733 5739 5744 5748 5752 5755 5758 5761 5765 5767 5770 5772 5774 5776 5777 5778 5779 5779 5779 5778 5776 5774 5771 5768 5764 5760 5757 5754 5753 5747 5743 5738 5735 5733 5727
5657 5665 5672 5679 5685 5691 5696 5702 5707 5713 5718 5722 5727 5732 5737 5742 5746 5749 5752 5755 5758 5761 5764 5767 5770 5771 5772 5773 5774 5773 5773 5771 5770 5768 5765 5761 5758 5754 5750 5745 5740 5735 5732 5731 5725 5722 5717
5653 5660 5668 5675 5681 5687 5692 5697 5703 5708 5713 5718 5722 5727 5731 5736 5739 5742 5746 5750 5753 5756 5759 5762 5764 5765 5767 5768 5768 5767 5766 5765 5762 5760 5758 5753 5750 5747 5741 5737 5734 5727 5725 5721 5717 5715 5706
5648 5656 5663 5670 5676 5682 5688 5692 5697 5702 5708 5713 5717 5721 5726 5730 5733 5737 5740 5743 5746 5749 5753 5756 5758 5760 5761 5761 5761 5760 5758 5757 5755 5753 5749 5746 5743 5739 5735 5731 5723 5718 5713 5712 5707 5700 5696
5644 5652 5659 5666 5672 5677 5683 5688 5693 5697 5702 5707 5712 5716 5720 5725 5728 5731 5734 5736 5740 5743 5746 5748 5750 5752 5752 5753 5753 5751 5750 5749 5748 5745 5741 5740 5736 5732 5726 5722 5713 5707 5701 5698 5694 5689 5683